Weather History for KTAN - August, 2013

Change the Weather History Date:

Friday, August 30, 2013

  Actual Average Record
Temperature  
Mean Temperature 68 °F -  
Max Temperature 80 °F 79 °F 94 °F (1953)
Min Temperature 57 °F 56 °F 38 °F (1986)
Cooling Degree Days 4    
Growing Degree Days 18 (Base 50)    
Moisture  
Dew Point 62 °F    
Average Humidity 82    
Maximum Humidity 96    
Minimum Humidity 62    
Precipitation  
Precipitation 0.00 in - - ()
Sea Level Pressure  
Sea Level Pressure 29.93 in    
Wind  
Wind Speed 3 mph (SW)    
Max Wind Speed 10 mph    
Max Gust Speed -    
Visibility 10 miles    
Events      
Averages and records for this station are not official NWS values.
T = Trace of Precipitation, MM = Missing Value Source: NWS Daily Summary

Daily Weather History Graph

Daily Weather History Graph

Search for Another Location

Airport or City:

Trip Planner

Search our weather history database for the weather conditions in past years. The results will help you decide how hot, cold, wet, or windy it might be!

Date:

Astronomy

Aug. 30, 2013 Rise Set
Actual Time 6:07 AM EDT 7:20 PM EDT
Civil Twilight 5:39 AM EDT 7:49 PM EDT
Nautical Twilight 5:04 AM EDT 8:23 PM EDT
Astronomical Twilight 4:28 AM EDT 8:59 PM EDT
Moon 12:41 AM EDT (8/30) 3:36 PM EDT (8/30)
Length of Visible Light 14h 10m
Length of Day
13h 12m
Waning Crescent, 29% of the Moon is Illuminated
Aug 30
Waning Crescent
Sep 5
New
Sep 12
First Quarter
Sep 19
Full
Sep 26
Last Quarter

Hourly Weather History & Observations

Time (EDT) Temp. Heat Index Dew Point Humidity Pressure Visibility Wind Dir Wind Speed Gust Speed Precip Events Conditions
12:28 AM 57.0 °F - 55.0 °F 93% 30.02 in 7.0 mi Calm Calm - N/A   Mostly Cloudy
12:52 AM 57.9 °F - 55.9 °F 93% 30.02 in 10.0 mi Calm Calm - N/A   Overcast
1:52 AM 59.0 °F - 57.0 °F 93% 30.01 in 10.0 mi Calm Calm - N/A   Mostly Cloudy
2:06 AM 57.9 °F - 55.9 °F 93% 30.00 in 10.0 mi Calm Calm - N/A   Partly Cloudy
2:25 AM 57.0 °F - 55.9 °F 96% 30.00 in 9.0 mi Calm Calm - N/A   Mostly Cloudy
2:52 AM 57.0 °F - 55.9 °F 96% 30.00 in 8.0 mi Calm Calm - N/A   Mostly Cloudy
3:52 AM 60.1 °F - 59.0 °F 96% 29.98 in 10.0 mi Calm Calm - N/A   Overcast
4:52 AM 60.1 °F - 59.0 °F 96% 29.98 in 10.0 mi Calm Calm - N/A   Overcast
5:52 AM 61.0 °F - 57.9 °F 90% 29.99 in 10.0 mi West 4.6 mph - N/A   Overcast
6:48 AM 62.6 °F - 59.0 °F 88% 30.00 in 10.0 mi Calm Calm - N/A   Overcast
6:52 AM 62.1 °F - 59.0 °F 90% 30.00 in 10.0 mi Calm Calm - N/A   Overcast
7:52 AM 63.0 °F - 57.9 °F 84% 29.99 in 10.0 mi West 4.6 mph - N/A   Overcast
8:52 AM 64.0 °F - 57.9 °F 80% 29.99 in 10.0 mi SW 4.6 mph - N/A   Overcast
9:52 AM 66.0 °F - 60.1 °F 81% 29.98 in 10.0 mi West 9.2 mph - N/A   Overcast
10:52 AM 66.9 °F - 60.1 °F 79% 29.97 in 10.0 mi West 8.1 mph - N/A   Overcast
11:49 AM 69.8 °F - 62.6 °F 78% 29.95 in 10.0 mi SW 9.2 mph - N/A   Overcast
11:52 AM 70.0 °F - 62.1 °F 76% 29.95 in 10.0 mi Variable 5.8 mph - N/A   Overcast
12:52 PM 73.0 °F - 64.0 °F 73% 29.93 in 10.0 mi West 4.6 mph - N/A   Overcast
1:52 PM 75.9 °F - 64.9 °F 69% 29.89 in 10.0 mi SW 10.4 mph - N/A   Mostly Cloudy
2:52 PM 79.0 °F - 64.9 °F 62% 29.87 in 10.0 mi SW 8.1 mph - N/A   Mostly Cloudy
3:52 PM 79.0 °F - 64.9 °F 62% 29.87 in 10.0 mi WSW 6.9 mph - N/A   Scattered Clouds
4:04 PM 78.1 °F - 66.0 °F 66% 29.87 in 10.0 mi SW 6.9 mph - N/A   Mostly Cloudy
4:13 PM 79.0 °F - 66.0 °F 64% 29.86 in 10.0 mi SW 6.9 mph - N/A   Scattered Clouds
4:22 PM 79.0 °F - 66.9 °F 66% 29.86 in 10.0 mi SSW 6.9 mph - N/A   Mostly Cloudy
4:36 PM 80.1 °F 82.3 °F 66.9 °F 64% 29.86 in 10.0 mi Variable 6.9 mph - N/A   Scattered Clouds
4:52 PM 79.0 °F - 66.9 °F 66% 29.86 in 10.0 mi SSW 5.8 mph - N/A   Clear
5:52 PM 77.0 °F - 66.9 °F 71% 29.86 in 10.0 mi SSW 6.9 mph - N/A   Clear
6:52 PM 73.9 °F - 66.9 °F 79% 29.85 in 10.0 mi SSW 5.8 mph - N/A   Clear
7:52 PM 71.1 °F - 66.9 °F 87% 29.85 in 10.0 mi South 4.6 mph - N/A   Clear
8:52 PM 70.0 °F - 66.9 °F 90% 29.86 in 9.0 mi SSW 4.6 mph - N/A   Clear
9:52 PM 70.0 °F - 66.9 °F 90% 29.86 in 9.0 mi SW 6.9 mph - N/A   Clear
10:52 PM 70.0 °F - 66.9 °F 90% 29.86 in 8.0 mi SSW 4.6 mph - N/A   Clear
11:52 PM 69.1 °F - 66.9 °F 93% 29.85 in 7.0 mi Variable 3.5 mph - N/A   Clear